Edinburg, TX

5:38 PM CST on November 20, 2017 (GMT -0600)
Edinburg

Weather History for KEBG - January, 2013

Change the Weather History Date:

Wednesday, January 16, 2013

  Actual Average (KMFE) Record (KMFE)
Temperature  
Mean Temperature 50 °F -  
Max Temperature 61 °F 70 °F 88 °F (2006)
Min Temperature 39 °F 50 °F 32 °F (1961)
Degree Days  
Heating Degree Days 15    
Moisture  
Dew Point 24 °F    
Average Humidity 40    
Maximum Humidity 68    
Minimum Humidity 15    
Precipitation  
Precipitation 0.00 in - - ()
Sea Level Pressure  
Sea Level Pressure 30.32 in    
Wind  
Wind Speed 13 mph (NW)    
Max Wind Speed 25 mph    
Max Gust Speed 33 mph    
Visibility 7 miles    
Events      
Averages and records for this station are not official NWS values.
T = Trace of Precipitation, MM = Missing Value Source: NWS Daily Summary

Daily Weather History Graph

Daily Weather History Graph

Search for Another Location

Airport or City:

Trip Planner

Search our weather history database for the weather conditions in past years. The results will help you decide how hot, cold, wet, or windy it might be!

Date:

Astronomy

Jan. 16, 2013 Rise Set
Actual Time 7:21 AM CST 6:03 PM CST
Civil Twilight 6:57 AM CST 6:27 PM CST
Nautical Twilight 6:28 AM CST 6:56 PM CST
Astronomical Twilight 6:00 AM CST 7:24 PM CST
Moon 10:34 AM CST (1/16) 11:17 PM CST (1/16)
Length of Visible Light 11h 30m
Length of Day
10h 41m
Waxing Crescent, 28% of the Moon is Illuminated
Jan 16
Waxing Crescent
Jan 18
First Quarter
Jan 26
Full
Feb 3
Last Quarter
Feb 10
New

Hourly Weather History & Observations

Time (CST) Temp. Windchill Dew Point Humidity Pressure Visibility Wind Dir Wind Speed Gust Speed Precip Events Conditions
12:15 AM 46.9 °F - 36.7 °F 68% 30.26 in 7.0 mi NNW 10.4 mph - N/A   Overcast
12:35 AM 47.1 °F - 36.1 °F 66% 30.26 in 7.0 mi NNW 19.6 mph 26.5 mph N/A   Overcast
12:55 AM 46.9 °F - 35.8 °F 65% 30.28 in 7.0 mi NNW 13.8 mph 20.7 mph N/A   Overcast
1:15 AM 46.6 °F - 35.8 °F 66% 30.27 in 7.0 mi NNW 16.1 mph 20.7 mph N/A   Overcast
1:35 AM 46.6 °F - 36.0 °F 67% 30.28 in 7.0 mi NNW 12.7 mph - N/A   Overcast
1:55 AM 46.4 °F 39.0 °F 33.4 °F 61% 30.28 in 7.0 mi NNW 19.6 mph 24.2 mph N/A   Overcast
2:35 AM 45.5 °F 38.9 °F 32.0 °F 59% 30.29 in 7.0 mi NNW 15.0 mph 20.7 mph N/A   Overcast
2:55 AM 45.5 °F 39.2 °F 31.6 °F 58% 30.30 in 7.0 mi NNW 13.8 mph - N/A   Overcast
3:15 AM 45.5 °F 38.6 °F 31.1 °F 57% 30.30 in 7.0 mi NNW 16.1 mph - N/A   Overcast
3:35 AM 45.5 °F 39.6 °F 31.1 °F 57% 30.31 in 7.0 mi NNW 12.7 mph 18.4 mph N/A   Overcast
3:55 AM 45.5 °F 39.9 °F 30.6 °F 56% 30.31 in 7.0 mi NNW 11.5 mph - N/A   Overcast
4:15 AM 45.5 °F 38.9 °F 30.0 °F 55% 30.31 in 10.0 mi NNW 15.0 mph - N/A   Overcast
4:35 AM 45.5 °F 39.2 °F 29.8 °F 54% 30.32 in 7.0 mi NNW 13.8 mph - N/A   Overcast
4:55 AM 45.1 °F 39.5 °F 30.2 °F 56% 30.32 in 10.0 mi NNW 11.5 mph - N/A   Overcast
5:35 AM 43.2 °F 37.9 °F 30.2 °F 60% 30.33 in 7.0 mi NW 9.2 mph - N/A   Scattered Clouds
6:35 AM 41.4 °F 35.7 °F 28.4 °F 60% 30.36 in 7.0 mi NW 9.2 mph - N/A   Clear
6:55 AM 41.0 °F 35.8 °F 27.5 °F 59% 30.37 in 7.0 mi NNW 8.1 mph - N/A   Clear
7:15 AM 40.1 °F 35.3 °F 27.3 °F 60% 30.38 in 10.0 mi NNW 6.9 mph - N/A   Clear
7:35 AM 39.7 °F 36.5 °F 27.5 °F 62% 30.38 in 7.0 mi NNW 4.6 mph - N/A   Clear
7:55 AM 40.6 °F 36.7 °F 27.1 °F 59% 30.38 in 5.0 mi NW 5.8 mph - N/A   Haze
8:15 AM 41.9 °F 36.3 °F 26.6 °F 55% 30.39 in 5.0 mi NNW 9.2 mph - N/A   Haze
8:35 AM 43.2 °F 36.6 °F 25.2 °F 49% 30.40 in 7.0 mi NW 12.7 mph - N/A   Clear
8:55 AM 44.8 °F 38.0 °F 25.2 °F 46% 30.40 in 7.0 mi NW 15.0 mph 23.0 mph N/A   Clear
9:15 AM 46.0 °F 38.8 °F 23.9 °F 42% 30.40 in 7.0 mi NNW 18.4 mph - N/A   Clear
9:35 AM 48.0 °F - 23.2 °F 38% 30.41 in 7.0 mi NNW 17.3 mph 20.7 mph N/A   Clear
9:55 AM 48.6 °F - 22.3 °F 36% 30.41 in 5.0 mi NNW 16.1 mph 20.7 mph N/A   Haze
10:15 AM 49.5 °F - 21.9 °F 34% 30.41 in 5.0 mi North 17.3 mph 23.0 mph N/A   Haze
10:35 AM 50.7 °F - 23.2 °F 34% 30.40 in 7.0 mi NNW 15.0 mph 19.6 mph N/A   Clear
10:55 AM 52.0 °F - 22.5 °F 32% 30.39 in 5.0 mi North 13.8 mph - N/A   Haze
11:15 AM 52.9 °F - 23.9 °F 32% 30.39 in 7.0 mi NNW 17.3 mph - N/A   Clear
11:35 AM 53.4 °F - 23.5 °F 31% 30.38 in 7.0 mi NNW 15.0 mph - N/A   Clear
11:55 AM 55.6 °F - 24.1 °F 30% 30.36 in 7.0 mi North 18.4 mph 27.6 mph N/A   Clear
12:15 PM 56.3 °F - 21.2 °F 26% 30.35 in 7.0 mi NNW 18.4 mph 26.5 mph N/A   Clear
12:55 PM 58.3 °F - 21.2 °F 24% 30.32 in 7.0 mi NW 15.0 mph 28.8 mph N/A   Clear
1:15 PM 59.5 °F - 21.2 °F 23% 30.30 in 5.0 mi NW 12.7 mph 24.2 mph N/A   Haze
1:35 PM 60.3 °F - 19.6 °F 21% 30.29 in 7.0 mi NNW 20.7 mph 27.6 mph N/A   Clear
1:55 PM 60.6 °F - 17.1 °F 18% 30.28 in 7.0 mi NW 19.6 mph 28.8 mph N/A   Clear
2:15 PM 60.8 °F - 14.9 °F 17% 30.27 in 7.0 mi NNW 21.9 mph 28.8 mph N/A   Clear
2:35 PM 60.3 °F - 17.8 °F 19% 30.27 in 7.0 mi NNW 19.6 mph - N/A   Clear
2:55 PM 61.3 °F - 15.6 °F 17% 30.26 in 7.0 mi NW 15.0 mph 33.4 mph N/A   Clear
3:15 PM 61.3 °F - 15.4 °F 17% 30.26 in 7.0 mi NNW 19.6 mph 26.5 mph N/A   Clear
3:35 PM 61.7 °F - 13.8 °F 15% 30.26 in 7.0 mi NNW 25.3 mph 29.9 mph N/A   Clear
3:55 PM 61.0 °F - 14.2 °F 16% 30.26 in 5.0 mi NNW 21.9 mph 28.8 mph N/A   Haze
4:15 PM 60.4 °F - 14.7 °F 17% 30.26 in 7.0 mi NW 19.6 mph 26.5 mph N/A   Clear
4:35 PM 60.3 °F - 16.7 °F 18% 30.26 in 5.0 mi NW 15.0 mph 20.7 mph N/A   Haze
4:55 PM 59.5 °F - 18.1 °F 20% 30.26 in 7.0 mi NW 12.7 mph 17.3 mph N/A   Clear
5:15 PM 59.5 °F - 17.1 °F 19% 30.27 in 7.0 mi NW 9.2 mph - N/A   Clear
5:35 PM 59.9 °F - 13.1 °F 16% 30.27 in 5.0 mi NW 10.4 mph - N/A   Haze
5:55 PM 59.2 °F - 13.3 °F 17% 30.28 in 5.0 mi NW 8.1 mph - N/A   Haze
6:15 PM 57.2 °F - 15.1 °F 19% 30.29 in 5.0 mi NW 6.9 mph - N/A   Haze
6:35 PM 55.9 °F - 16.5 °F 21% 30.30 in 7.0 mi WNW 4.6 mph - N/A   Clear
6:55 PM 54.3 °F - 18.7 °F 25% 30.30 in 7.0 mi WNW 4.6 mph - N/A   Clear
7:15 PM 53.8 °F - 16.9 °F 23% 30.31 in 7.0 mi West 4.6 mph - N/A   Clear
7:35 PM 52.5 °F - 18.0 °F 26% 30.32 in 7.0 mi WNW 5.8 mph - N/A   Clear
7:55 PM 50.5 °F - 19.8 °F 30% 30.33 in 10.0 mi WSW 3.5 mph - N/A   Clear
8:15 PM 50.9 °F - 18.5 °F 28% 30.33 in 7.0 mi West 3.5 mph - N/A   Clear
8:55 PM 47.7 °F - 20.8 °F 35% 30.34 in 7.0 mi West 5.8 mph - N/A   Clear
9:15 PM 46.6 °F - 20.5 °F 36% 30.34 in 7.0 mi West 5.8 mph - N/A   Clear
9:35 PM 45.3 °F 42.3 °F 22.8 °F 41% 30.34 in 7.0 mi West 5.8 mph - N/A   Clear
9:55 PM 44.6 °F - 24.3 °F 45% 30.34 in 7.0 mi Calm Calm - N/A   Clear
10:15 PM 45.5 °F - 26.1 °F 47% 30.34 in 7.0 mi Calm Calm - N/A   Clear
10:35 PM 42.8 °F - 26.1 °F 52% 30.34 in 7.0 mi Calm Calm - N/A   Clear
10:55 PM 43.7 °F - 25.3 °F 48% 30.35 in 7.0 mi Calm Calm - N/A   Clear
11:15 PM 42.6 °F - 25.9 °F 52% 30.35 in 10.0 mi Calm Calm - N/A   Clear
11:35 PM 42.8 °F - 28.0 °F 56% 30.35 in 7.0 mi Calm Calm - N/A   Clear
11:55 PM 40.6 °F - 29.8 °F 65% 30.35 in 7.0 mi Calm Calm - N/A   Clear